Location: St Paul
(33.4390°N, 83.7350°W)
Time: 00:06:13
(UTC-04:00)

Resurs 01 Rocket - Pass Details

Date: 06 October 2017
Orbit: 634 x 645 km, 98.1° (Epoch: 17 October)

Event Time Altitude Azimuth Distance (km) Brightness Sun altitude
Exits shadow 21:44:47 24° 326° (NW) 1,332 3.6 -32.4°
Drops below altitude 10° 21:46:37 10° 336° (NNW) 2,024 4.6 -32.7°
Sets 21:48:53 0° 342° (NNW) 2,935 5.5 -33.2°
